Regional Weather Roundup
Issued by NWS

Home | Current Version | Previous Version | Graphics & Text | Print | Product List | Glossary On
Versions: 1 2 3 4 5 6 7 8 9 10 11 12 13 14 15 16 17 18 19 20 21 22 23 24 25 26 27 28
000
ASUS45 KCYS 261210
RWRWY

WYOMING REGIONAL WEATHER ROUNDUP
NATIONAL WEATHER SERVICE CHEYENNE WY
600 AM MDT MON SEP 26 2016

NOTE:  "FAIR" INDICATES FEW OR NO CLOUDS BELOW 12,000 FEET
WITH NO SIGNIFICANT WEATHER AND/OR OBSTRUCTIONS TO VISIBILITY.

WYZ001-261300-
YELLOWSTONE NATIONAL PARK

CITY           SKY/WX    TMP DP  RH WIND       PRES   REMARKS
LK YELLOWSTONE   N/A     28  28 100 CALM      30.55S
6HR MIN TEMP:  28; 6HR MAX TEMP:  33;

W YELLOWSTONE  NOT AVBL

$$
WYZ002>013-054>058-071-098>099-261300-
NORTHERN WYOMING

CITY           SKY/WX    TMP DP  RH WIND       PRES   REMARKS
JACKSON        FAIR      32  30  93 N6        30.51F WCI  26
CODY           FAIR      43  37  81 CALM      30.41R
GREYBULL       FAIR      42  41  96 CALM      30.37S
6HR MIN TEMP:  42; 6HR MAX TEMP:  49;

WORLAND        FAIR      42  40  92 S5        30.38R
6HR MIN TEMP:  40; 6HR MAX TEMP:  46;

SHERIDAN       CLOUDY    53  44  71 W7        30.34S
6HR MIN TEMP:  42; 6HR MAX TEMP:  54;

BUFFALO        FAIR      50  37  61 SW5       30.37R
6HR MIN TEMP:  47; 6HR MAX TEMP:  54;

GILLETTE       FAIR      47  40  76 W12       30.33S
6HR MIN TEMP:  43; 6HR MAX TEMP:  48;

HULETT         FAIR      46  36  66 SW12      30.32R
NEWCASTLE      FAIR      37  34  87 CALM      30.34S

$$
WYZ014>020-022>026-101>103-261300-
CENTRAL WYOMING

CITY           SKY/WX    TMP DP  RH WIND       PRES   REMARKS
BIG PINEY      FAIR      41  34  76 N7        30.48F
6HR MIN TEMP:  35; 6HR MAX TEMP:  46;

PINEDALE       FAIR      32  32 100 NW6       30.50R WCI  26
DUBOIS         FAIR      43  34  70 NW13      30.46S
LANDER         FAIR      47  37  68 W6        30.40S
6HR MIN TEMP:  42; 6HR MAX TEMP:  51;

RIVERTON       FAIR      41  38  89 NW7       30.41S
6HR MIN TEMP:  40; 6HR MAX TEMP:  48;

CASPER         FAIR      37  35  92 NW3       30.40S
6HR MIN TEMP:  36; 6HR MAX TEMP:  46;

DOUGLAS        FAIR      37  35  92 NW5       30.40S WCI  33
6HR MIN TEMP:  35; 6HR MAX TEMP:  42;


$$
WYZ021-027>030-104>119-261300-
SOUTHERN WYOMING

CITY           SKY/WX    TMP DP  RH WIND       PRES   REMARKS
EVANSTON       FAIR      43  31  62 S5        30.50S
6HR MIN TEMP:  42; 6HR MAX TEMP:  50;

FORT BRIDGER   FAIR      46  35  64 W9        30.52R
ROCK SPRINGS   FAIR      43  34  70 CALM      30.48R
6HR MIN TEMP:  42; 6HR MAX TEMP:  48;

DIXON          FAIR      36  32  85 NE3       30.52S
RAWLINS        FAIR      31  29  92 CALM      30.49R
6HR MIN TEMP:  31; 6HR MAX TEMP:  41;

SARATOGA       FAIR      39  30  70 SE8G16    30.50R WCI  34
LARAMIE        FAIR      33  28  81 SE9       30.46S WCI  25
6HR MIN TEMP:  32; 6HR MAX TEMP:  37;

CHEYENNE       FAIR      40  32  73 W9        30.41S WCI  34
6HR MIN TEMP:  38; 6HR MAX TEMP:  45;

TORRINGTON     FAIR      38  35  89 N5        30.35F WCI  34
6HR MIN TEMP:  36; 6HR MAX TEMP:  43;

PINE BLUFFS    FAIR      34  32  93 MISG      30.40S

$$




USA.gov is the U.S. government's official web portal to all federal, state and local government web resources and services.